Theta_e
329 330 329 323 308 308 300 302 307 307 309 314 318 317 313 317 314 309 328 331 339 340 343 344 345 345 345 344 344 343 342 341 340 340 338 339 338 338 338 337 338 338 337 337 337 337 338 337 337
325 327 325 316 303 297 300 306 305 308 315 319 318 317 314 312 323 323 323 331 339 341 342 342 343 345 344 344 343 343 342 341 338 339 337 337 337 338 338 338 338 337 336 337 337 337 337 338 337
324 327 315 308 303 297 299 307 308 311 314 317 314 318 316 316 324 324 330 333 339 340 342 342 342 344 344 343 343 342 342 339 337 337 337 336 337 337 337 337 336 336 336 337 337 337 338 338 338
320 320 315 302 299 304 304 308 311 310 312 317 315 313 321 327 325 330 332 334 338 339 341 340 343 344 344 343 342 342 342 339 338 338 337 336 337 336 337 336 336 336 336 337 337 337 338 338 337
317 314 303 299 300 304 308 310 311 310 311 314 317 313 318 326 331 332 330 333 336 338 341 340 342 343 343 342 342 341 341 340 338 337 338 337 336 336 335 335 335 336 336 336 336 337 338 338 337
306 309 297 295 299 304 307 310 311 311 312 313 316 315 319 328 329 330 330 331 337 337 340 340 337 339 340 341 340 340 340 340 336 337 339 336 336 336 336 335 335 335 336 336 337 338 338 337 336
301 301 296 297 298 300 305 310 309 309 311 311 319 313 319 324 330 330 330 332 335 337 338 339 339 337 335 336 337 338 338 338 338 336 334 336 333 338 336 336 335 335 336 337 337 337 337 335 334
299 301 295 297 296 297 304 307 311 311 311 317 319 311 314 325 329 329 330 333 334 334 335 337 338 338 337 335 332 333 335 335 336 331 333 331 331 333 333 332 334 335 336 336 335 336 334 334 333
300 295 292 295 296 299 306 304 309 314 311 314 320 320 323 328 328 327 326 330 331 331 332 336 337 337 337 335 330 329 331 331 331 330 328 328 330 329 328 328 332 335 335 335 336 335 332 331 329
293 291 292 299 300 300 303 303 304 306 311 311 314 323 326 326 325 323 323 325 328 328 329 332 336 336 336 336 332 332 331 330 330 330 328 329 326 326 327 324 328 330 331 335 334 333 329 326 323
293 288 293 294 297 298 298 300 304 302 303 310 310 320 322 323 324 323 324 326 327 329 330 330 333 335 335 334 333 333 329 327 326 327 328 324 325 324 325 323 324 324 326 327 326 325 324 322 321
289 293 293 293 295 294 294 301 299 300 304 310 314 318 322 321 321 323 323 325 327 328 329 328 328 330 334 335 333 331 327 324 324 323 325 323 324 323 325 327 327 328 327 330 327 320 319 319 321
290 292 294 294 294 293 294 293 296 297 301 308 312 321 322 320 321 324 324 326 327 326 327 326 325 331 334 333 332 330 326 324 322 325 324 325 324 324 326 330 332 331 332 327 319 317 316 318 319
292 292 292 294 294 294 292 292 294 296 304 304 310 314 323 321 322 322 323 324 326 327 327 327 328 330 333 331 331 330 326 324 322 324 324 326 325 326 328 328 327 326 327 324 316 314 315 316 314
292 288 290 291 292 291 293 288 289 295 300 300 304 310 318 322 322 322 322 323 326 326 328 329 329 330 331 330 331 329 326 324 321 322 324 326 327 327 329 324 322 322 320 313 312 311 314 310 310
286 286 280 288 291 291 290 282 290 294 297 298 302 306 313 315 321 322 324 324 326 327 327 329 331 331 331 330 329 328 323 322 321 323 325 327 327 328 323 321 318 320 317 313 310 310 308 307 305
284 278 280 283 290 290 288 284 291 294 293 295 302 305 309 314 317 323 324 325 325 326 326 328 330 331 330 329 327 323 321 321 321 323 325 328 327 326 322 317 316 319 316 313 310 308 307 303 302
277 278 281 281 287 288 286 286 290 292 292 291 296 303 306 310 314 322 324 326 326 326 327 328 328 328 328 328 324 322 321 321 321 322 323 326 326 322 318 313 312 314 313 310 308 306 305 302 300
283 281 280 283 287 285 283 284 287 291 292 291 293 298 304 308 312 321 324 325 326 325 325 327 326 327 326 323 320 320 319 319 320 322 324 326 323 317 312 311 309 310 309 307 307 305 300 297 296
283 280 279 283 286 285 283 282 286 288 289 291 292 299 302 306 310 314 323 324 324 324 325 326 326 327 326 323 322 320 322 322 323 322 323 322 319 314 311 309 308 307 306 306 306 302 297 296 297
282 280 280 280 284 285 283 280 283 287 289 291 293 297 305 306 308 311 318 321 323 323 324 324 326 326 326 325 324 323 322 319 317 316 316 314 313 309 307 307 307 307 305 304 305 301 299 295 296
278 286 284 282 280 274 283 271 280 284 286 289 291 293 297 305 309 311 316 320 321 323 325 324 325 326 326 326 323 321 319 317 316 316 311 308 308 305 304 304 304 305 304 304 303 303 300 299 296
280 286 283 283 280 278 278 274 278 284 283 286 289 292 295 300 306 308 313 320 322 323 324 325 325 325 326 326 323 320 318 316 313 311 308 303 301 301 301 301 302 302 303 303 303 301 300 300 298
286 283 283 283 279 272 277 276 275 279 283 287 290 292 295 299 303 308 312 322 321 322 323 324 324 323 324 324 323 320 317 314 312 310 305 301 298 297 298 298 300 299 299 300 300 299 299 296 295
285 281 273 271 271 269 280 276 278 283 286 288 289 291 295 298 302 306 307 317 319 319 321 323 322 321 323 324 323 320 317 315 313 308 305 300 297 294 295 296 295 296 296 296 296 295 294 293 292
279 280 270 266 264 268 279 270 278 286 288 290 292 294 296 298 302 304 308 311 318 319 319 323 322 321 323 324 323 319 318 317 314 309 306 302 300 297 295 295 294 294 293 292 292 292 291 291 291
282 278 284 275 274 272 274 280 285 288 288 289 290 293 295 298 304 306 309 310 318 318 318 320 322 322 322 323 321 319 318 318 313 309 306 302 297 295 293 292 290 291 290 290 290 289 288 289 289
283 285 277 275 269 269 275 279 280 287 286 290 289 290 297 300 302 305 308 311 316 318 318 320 321 321 321 321 321 319 318 314 310 306 302 298 294 293 291 290 289 289 289 289 289 288 289 289 289
283 281 282 281 278 270 270 279 285 290 292 293 293 295 298 301 304 306 308 314 316 316 316 319 319 319 318 318 319 318 314 308 305 302 298 295 292 291 289 289 289 289 288 289 289 289 289 289 288
284 280 281 276 274 277 275 276 287 289 293 295 298 300 301 302 303 305 307 309 311 311 314 315 315 315 314 316 313 307 303 300 297 296 294 292 291 290 290 290 290 290 289 290 290 289 289 287 286
Wind_Speed
17 11 8 4 4 6 12 13 15 17 7 5 5 6 5 5 8 4 8 4 19 20 19 17 20 20 19 17 18 17 15 15 16 15 15 16 15 15 15 14 14 14 14 13 13 13 12 12 11
12 14 6 5 7 11 10 14 16 16 2 5 5 5 3 3 6 8 8 5 20 19 18 17 19 20 19 19 17 18 16 16 16 15 15 16 15 14 14 13 13 14 13 13 12 12 11 11 11
15 15 4 4 12 16 13 15 14 13 7 7 4 1 4 4 9 10 9 10 19 18 16 16 19 20 19 19 17 18 15 16 16 15 16 15 14 13 13 13 13 12 12 12 11 11 10 10 10
6 6 6 10 19 15 22 20 17 5 7 8 4 5 6 4 4 8 10 15 18 18 16 18 20 21 19 19 17 17 16 16 16 16 15 15 14 13 12 12 12 11 11 11 10 10 9 9 9
7 6 10 16 23 20 21 20 20 10 12 8 7 9 5 4 7 10 11 13 19 16 17 17 19 20 20 19 17 16 16 16 16 16 15 15 14 12 12 12 10 10 11 10 9 9 8 8 8
5 6 12 20 20 18 19 22 21 13 8 7 10 6 5 6 8 9 10 12 18 15 17 16 16 17 19 18 17 16 16 15 17 16 14 15 14 13 12 11 10 9 10 9 8 7 8 10 7
12 10 18 21 21 20 24 21 19 13 10 15 7 8 5 8 9 9 9 11 17 17 14 14 14 14 14 14 14 14 14 15 14 15 15 13 14 11 11 10 9 9 9 8 7 6 11 10 7
9 11 22 23 19 22 19 18 21 18 14 9 3 8 7 10 9 7 8 13 14 14 15 14 13 13 12 10 12 12 12 13 13 16 12 10 12 10 9 9 7 9 8 8 6 7 10 9 6
12 9 16 24 21 18 17 18 16 15 11 14 3 7 7 18 11 7 5 15 13 12 13 15 14 13 13 10 9 10 12 11 9 11 11 8 5 6 7 6 9 8 7 6 6 10 9 8 6
9 11 19 15 16 16 11 14 19 14 6 21 4 9 18 14 13 13 10 13 13 15 12 14 15 14 13 10 10 7 8 6 5 6 6 5 6 6 7 8 9 9 7 8 8 9 10 7 3
13 19 15 18 20 21 17 19 13 16 12 18 8 17 16 14 12 13 11 12 12 15 11 14 14 15 13 11 8 5 4 5 4 7 7 6 5 4 5 4 4 4 6 4 5 4 3 2 4
16 17 17 17 17 18 17 16 15 17 15 23 15 8 19 18 16 17 15 14 13 15 13 12 12 13 13 9 8 7 5 4 5 5 8 4 4 4 4 5 5 5 4 5 4 3 4 4 5
16 15 17 16 16 17 16 17 15 25 21 23 22 4 20 14 16 14 13 13 12 11 9 6 6 10 12 12 9 8 6 4 5 6 7 5 5 5 4 6 5 4 5 4 5 5 4 4 6
13 18 18 18 16 14 17 18 17 18 14 20 16 7 11 14 18 15 15 14 14 13 12 9 6 8 13 11 11 9 7 6 4 5 5 6 5 5 3 5 4 3 4 4 5 5 4 5 5
15 16 15 15 15 18 16 23 29 19 17 22 21 16 9 14 13 18 18 14 16 15 15 15 11 7 11 12 11 8 7 6 5 5 7 6 6 6 8 6 4 4 4 7 5 4 5 5 5
18 18 17 14 18 20 16 26 23 15 19 19 22 16 11 10 12 16 16 16 15 14 16 15 11 10 12 11 10 8 7 6 5 5 5 7 6 6 8 6 4 5 5 5 4 4 5 5 5
12 14 20 20 19 15 19 26 19 19 19 20 19 17 13 11 4 18 17 16 16 15 15 17 13 12 13 12 10 7 7 6 5 5 5 10 7 9 8 6 5 5 4 5 5 3 5 5 5
12 14 17 17 13 16 17 17 12 15 16 22 17 17 14 15 12 13 18 16 16 16 16 16 14 11 10 9 9 7 7 5 5 5 5 7 6 8 7 5 5 5 4 4 4 5 3 4 4
17 20 21 20 19 18 16 16 14 13 15 17 19 20 14 17 12 20 17 18 16 16 16 16 17 14 10 8 9 8 8 7 4 5 8 7 9 8 6 5 6 5 5 5 6 4 6 3 5
21 22 23 19 20 17 18 19 16 18 19 16 15 15 19 16 17 14 15 17 19 17 18 17 17 15 14 10 9 7 7 4 3 4 5 8 9 8 7 7 7 6 6 6 6 7 4 3 5
21 21 22 22 18 16 17 19 18 17 21 21 20 16 17 20 15 16 20 18 18 19 18 16 18 17 14 13 9 9 5 4 3 4 4 5 8 7 7 7 7 8 6 7 8 7 6 4 5
25 19 24 21 18 14 13 15 16 15 19 20 20 19 16 17 17 15 18 18 19 19 16 16 17 18 16 15 11 14 12 9 4 6 4 4 7 7 6 6 6 7 5 7 7 6 4 5 5
23 17 20 20 14 14 19 12 13 15 20 21 22 21 20 16 17 20 13 23 21 19 18 16 16 16 16 15 12 10 11 8 5 4 8 5 5 6 6 6 6 6 4 6 7 6 6 4 4
21 16 13 15 8 13 23 16 11 16 20 18 19 24 22 20 19 18 12 21 18 17 17 15 16 16 16 17 15 15 14 12 9 9 8 7 4 4 7 7 6 6 5 6 5 5 6 4 3
5 3 3 4 7 12 11 13 18 13 22 24 22 26 24 23 21 16 10 12 17 16 15 14 15 17 17 18 18 15 16 14 14 13 10 10 6 3 7 7 7 6 6 6 6 5 5 4 3
11 7 3 4 3 6 13 11 16 28 25 20 16 18 24 25 21 19 13 8 13 17 17 16 18 17 18 18 18 16 16 9 11 12 9 8 8 7 8 7 7 7 7 6 6 5 4 5 5
1 3 8 7 6 5 8 13 14 14 24 23 19 14 23 23 15 12 14 12 14 18 19 18 15 17 17 18 16 16 15 14 12 12 9 7 6 7 8 8 8 8 8 7 7 5 5 6 3
5 10 0 2 5 5 6 8 4 10 14 11 13 14 15 19 16 16 11 11 9 13 12 14 13 15 15 17 14 13 13 11 10 11 11 11 9 11 11 10 8 7 6 6 7 6 6 5 3
3 2 5 6 3 3 8 3 7 13 12 9 8 11 7 17 16 13 13 9 9 10 9 11 10 13 12 13 12 12 8 9 9 10 9 11 11 11 12 13 12 9 6 5 7 4 7 4 3
4 10 6 5 3 3 4 4 11 17 15 14 13 15 15 14 12 11 10 11 11 8 8 6 3 5 5 6 5 6 8 8 8 8 8 11 12 10 11 10 8 8 10 5 4 5 5 5 6
Wind_Direction
309 307 312 280 252 247 231 231 246 272 264 303 44 1 351 40 324 132 152 137 128 134 142 150 148 149 148 145 142 144 145 148 148 145 138 133 128 121 118 118 115 108 104 101 97 92 86 80 78
303 295 268 269 238 242 241 234 234 240 150 86 59 312 334 121 111 132 122 203 133 141 145 149 149 148 147 146 147 145 152 158 151 145 143 139 131 131 125 121 114 109 109 105 99 91 87 82 79
283 256 256 225 235 239 248 248 231 232 180 147 159 43 302 83 106 142 130 162 136 138 152 145 150 148 148 147 151 149 156 153 152 149 144 143 137 133 128 126 116 114 109 104 97 92 87 86 87
283 225 247 244 244 239 238 265 265 252 201 145 213 266 82 30 106 125 148 146 130 145 148 143 150 149 150 148 153 149 152 154 153 154 149 142 143 139 137 124 116 114 106 99 95 94 90 87 85
256 266 236 236 237 241 262 236 255 238 238 167 186 219 106 114 81 119 158 152 132 151 140 146 151 152 150 152 153 153 152 157 159 154 154 149 146 144 136 124 122 116 105 101 103 101 96 90 87
261 213 246 239 244 246 241 260 271 258 286 233 163 205 116 130 141 148 170 160 139 126 144 147 148 152 151 154 155 157 155 156 159 158 156 152 149 149 139 130 127 116 108 110 115 121 114 99 86
250 248 244 253 253 246 229 254 254 252 233 256 140 199 119 166 146 146 165 157 128 131 142 147 152 151 150 154 156 157 158 153 156 160 161 152 156 133 137 131 133 122 116 120 112 95 97 94 92
255 259 257 249 251 258 249 245 248 261 228 281 216 191 163 168 131 131 160 130 132 137 146 153 157 155 156 159 151 152 152 156 159 168 148 149 160 132 127 127 135 124 121 121 116 100 100 102 106
274 242 246 246 248 268 289 286 270 261 237 246 131 47 96 118 127 137 182 129 138 148 163 158 161 164 159 161 156 147 145 143 139 134 134 137 135 152 150 152 133 118 118 130 138 117 124 121 128
233 237 253 276 280 261 280 323 332 318 132 284 158 99 112 130 151 171 169 158 154 162 180 166 163 167 163 159 153 153 146 142 145 139 154 170 162 173 160 135 129 129 135 126 131 148 156 159 149
256 250 271 275 287 292 312 298 325 309 275 207 242 146 148 155 169 176 178 177 159 168 183 170 166 168 164 154 156 155 153 156 161 163 169 207 153 144 132 132 141 155 160 159 155 162 194 145 135
266 269 281 289 291 300 297 299 290 295 283 316 306 174 165 164 179 185 182 179 168 177 185 177 169 168 159 146 149 152 164 167 161 167 181 203 137 151 162 153 175 173 168 166 144 95 96 66 71
287 281 278 274 275 281 290 281 272 281 298 298 304 235 170 187 173 182 185 180 175 178 165 195 173 141 144 147 148 154 165 191 165 164 189 165 151 169 196 172 152 137 143 135 106 120 106 102 82
279 285 289 292 290 278 279 282 276 265 281 295 303 253 160 194 186 172 181 182 180 174 175 190 211 151 148 149 153 159 173 178 166 160 179 170 176 173 154 105 107 145 118 102 120 125 125 92 86
281 281 279 271 269 266 258 261 255 260 259 268 280 290 199 199 192 178 181 191 185 175 173 183 198 163 148 154 153 171 177 164 169 161 177 190 182 179 131 126 132 112 99 98 96 111 103 96 89
283 278 271 269 252 244 244 255 262 264 252 250 262 263 256 203 222 186 180 185 182 176 174 179 189 184 161 156 162 176 176 160 167 161 162 182 193 166 118 128 146 130 123 127 134 132 112 115 118
248 260 264 269 264 248 218 249 247 246 251 264 251 253 250 232 257 188 182 188 178 181 177 179 187 179 171 164 168 174 167 156 167 169 167 177 185 126 126 133 152 148 143 140 150 133 133 134 125
262 254 266 274 287 294 255 256 248 262 257 234 242 258 259 248 210 245 175 176 181 179 183 175 184 177 165 164 166 175 164 164 168 177 172 162 130 122 123 135 143 136 139 136 125 127 113 123 132
262 267 265 270 272 276 277 290 292 282 239 249 239 236 248 243 224 196 189 174 178 184 180 183 178 176 169 171 173 176 168 175 172 167 158 138 133 130 138 141 144 144 149 148 135 117 119 94 122
273 275 266 272 265 271 281 281 284 283 281 275 254 224 234 251 241 214 178 179 175 184 190 185 181 179 180 178 181 173 168 166 140 136 136 127 135 141 149 159 163 157 143 144 145 138 136 123 181
262 261 259 257 271 259 268 267 261 248 254 267 267 272 222 225 248 226 198 181 179 185 192 191 183 182 183 182 176 165 137 112 113 127 114 126 136 147 161 165 156 159 149 160 161 155 151 149 211
279 273 263 264 262 253 237 264 252 247 250 243 249 249 252 218 231 256 190 170 183 183 190 192 186 182 184 185 185 172 169 168 161 162 145 150 138 150 162 156 156 161 148 161 164 166 163 142 176
280 276 258 266 242 254 250 254 248 244 255 236 233 235 240 247 219 236 226 184 183 179 184 195 192 184 181 182 183 175 181 172 145 154 151 141 139 152 159 156 160 152 152 154 163 165 177 173 154
270 261 250 241 229 243 240 227 229 233 238 250 216 225 228 230 224 231 246 172 172 180 180 191 194 190 187 184 190 181 182 174 163 172 165 165 158 159 159 152 158 145 145 152 162 162 174 179 136
280 174 205 175 213 243 227 230 236 240 226 233 247 209 216 222 211 218 219 168 168 178 172 177 187 192 192 189 195 180 185 182 180 171 173 166 164 175 173 159 159 153 146 150 141 139 125 132 130
278 275 217 225 225 253 214 227 224 217 240 250 246 223 205 217 198 207 208 174 164 173 180 175 193 194 195 197 197 178 181 191 179 182 175 178 179 174 153 158 141 134 127 116 117 115 113 112 128
316 196 299 318 241 262 236 247 239 228 216 231 236 257 197 205 198 190 196 198 168 176 184 180 190 193 194 195 188 185 186 188 178 176 167 164 141 137 136 129 122 122 123 128 125 122 117 114 111
326 329 307 235 294 275 281 268 175 303 219 217 217 229 203 192 199 198 200 191 156 165 173 175 189 201 197 197 191 193 188 169 160 158 163 154 139 137 136 126 125 116 118 117 119 130 112 127 120
307 331 281 289 217 270 314 74 10 360 11 353 211 189 206 189 187 181 184 157 136 145 150 176 183 199 195 194 188 187 167 147 144 148 148 142 133 138 138 139 133 125 118 126 114 104 113 137 125
61 1 298 272 189 226 219 249 0 1 8 4 354 32 37 54 62 79 87 80 76 78 86 93 137 170 184 169 132 117 112 116 115 120 129 135 133 133 135 129 119 138 135 133 145 143 105 184 190